Dallas, TX

10:48 AM CST on February 27, 2017 (GMT -0600)
Dallas-Fort Worth International

Weather History for KDFW - May, 2013

Change the Weather History Date:

Tuesday, May 14, 2013

  Actual Average Record
Temperature  
Mean Temperature 74 °F 73 °F  
Max Temperature 87 °F 83 °F 95 °F (1955)
Min Temperature 60 °F 64 °F 42 °F (1971)
Degree Days  
Heating Degree Days 0 0  
Month to date heating degree days 38 6  
Since 1 July heating degree days 2045 2282  
Cooling Degree Days 9 9  
Month to date cooling degree days 59 98  
Year to date cooling degree days 176 236  
Growing Degree Days 24 (Base 50)    
Moisture  
Dew Point 53 °F    
Average Humidity 54    
Maximum Humidity 78    
Minimum Humidity 29    
Precipitation  
Precipitation 0.00 in 0.17 in 2.41 in (1910)
Month to date precipitation 0.24 2.24  
Year to date precipitation 10.23 13.59  
Sea Level Pressure  
Sea Level Pressure 30.06 in    
Wind  
Wind Speed 14 mph (South)    
Max Wind Speed 26 mph    
Max Gust Speed 34 mph    
Visibility 10 miles    
Events      
T = Trace of Precipitation, MM = Missing Value Source: NWS Daily Summary

Daily Weather History Graph

Daily Weather History Graph

Search for Another Location

Airport or City:

Trip Planner

Search our weather history database for the weather conditions in past years. The results will help you decide how hot, cold, wet, or windy it might be!

Date:

Astronomy

May. 14, 2013 Rise Set
Actual Time 6:29 AM CDT 8:19 PM CDT
Civil Twilight 6:02 AM CDT 8:47 PM CDT
Nautical Twilight 5:29 AM CDT 9:20 PM CDT
Astronomical Twilight 4:54 AM CDT 9:54 PM CDT
Moon 10:09 AM CDT (5/14) No Moon Set
Length of Visible Light 14h 44m
Length of Day
13h 50m
Waxing Crescent, 19% of the Moon is Illuminated
May 14
Waxing Crescent
May 17
First Quarter
May 24
Full
May 31
Last Quarter
Jun 8
New

Hourly Weather History & Observations

Time (CDT) Temp. Heat Index Dew Point Humidity Pressure Visibility Wind Dir Wind Speed Gust Speed Precip Events Conditions
12:53 AM 70.0 °F - 48.9 °F 47% 30.12 in 10.0 mi South 12.7 mph - N/A   Clear
1:53 AM 68.0 °F - 51.1 °F 55% 30.11 in 10.0 mi South 11.5 mph - N/A   Clear
2:53 AM 68.0 °F - 51.1 °F 55% 30.09 in 10.0 mi SSW 12.7 mph - N/A   Clear
3:53 AM 66.9 °F - 51.1 °F 57% 30.09 in 10.0 mi SSW 10.4 mph - N/A   Clear
4:53 AM 62.1 °F - 52.0 °F 70% 30.08 in 10.0 mi South 9.2 mph - N/A   Clear
5:53 AM 61.0 °F - 53.1 °F 75% 30.09 in 10.0 mi South 6.9 mph - N/A   Clear
6:53 AM 60.1 °F - 54.0 °F 80% 30.10 in 10.0 mi South 8.1 mph - N/A   Mostly Cloudy
7:53 AM 64.9 °F - 55.0 °F 70% 30.12 in 10.0 mi South 9.2 mph - N/A   Mostly Cloudy
8:53 AM 71.1 °F - 55.9 °F 59% 30.13 in 10.0 mi SSW 12.7 mph - N/A   Mostly Cloudy
9:53 AM 75.0 °F - 55.9 °F 51% 30.14 in 10.0 mi SSW 13.8 mph - N/A   Mostly Cloudy
10:53 AM 79.0 °F - 55.9 °F 45% 30.14 in 10.0 mi SSW 15.0 mph - N/A   Scattered Clouds
11:53 AM 82.0 °F 81.7 °F 57.0 °F 42% 30.12 in 10.0 mi SSW 13.8 mph 21.9 mph N/A   Partly Cloudy
12:53 PM 84.9 °F 83.6 °F 55.0 °F 36% 30.09 in 10.0 mi South 18.4 mph 23.0 mph N/A   Partly Cloudy
1:53 PM 84.9 °F 83.6 °F 55.0 °F 36% 30.06 in 10.0 mi SSE 17.3 mph 25.3 mph N/A   Partly Cloudy
2:53 PM 86.0 °F - 52.0 °F 31% 30.04 in 10.0 mi South 21.9 mph 28.8 mph N/A   Partly Cloudy
3:53 PM 87.1 °F 84.9 °F 53.1 °F 31% 30.02 in 10.0 mi South 18.4 mph 25.3 mph N/A   Clear
4:53 PM 86.0 °F - 50.0 °F 29% 29.99 in 10.0 mi South 21.9 mph 32.2 mph N/A   Clear
5:53 PM 84.9 °F - 50.0 °F 30% 29.97 in 10.0 mi South 20.7 mph 31.1 mph N/A   Clear
6:53 PM 82.9 °F - 51.1 °F 33% 29.96 in 10.0 mi South 17.3 mph 28.8 mph N/A   Clear
7:53 PM 81.0 °F - 51.1 °F 35% 29.96 in 10.0 mi South 16.1 mph 23.0 mph N/A   Clear
8:53 PM 78.1 °F - 52.0 °F 40% 29.97 in 10.0 mi South 9.2 mph - N/A   Partly Cloudy
9:53 PM 77.0 °F - 55.9 °F 48% 29.98 in 10.0 mi SSE 12.7 mph - N/A   Partly Cloudy
10:53 PM 75.0 °F - 57.9 °F 55% 29.99 in 10.0 mi SSE 11.5 mph - N/A   Partly Cloudy
11:53 PM 73.9 °F - 59.0 °F 59% 30.01 in 10.0 mi South 11.5 mph - N/A   Partly Cloudy